www.pogodaiklimat.ru

Погода и климат >> Архив погоды >> Кувейт >> Экспериментальная ферма


ПОГОДА на Экспериментальной ферме

  • Прогноз погоды на Экспериментальной ферме
  • Монитор погоды на Экспериментальной ферме

АРХИВ ПОГОДЫ на Экспериментальной ферме

Время (UTC), дата Ветер
(напр.,м/с)
 
Видим.   Явления Облачность Т
(С)
Тd
(С)
f
(%)
Тe
(С)
Тes
(С)
Комфортность P
(гПа)
Po
(гПа)
Тmin
(С)
Tmax
(С)
R
(мм)
R24
(мм)
S
(см)
06 16.08 СЗ 3-9
{10}
н/о н/о +38.5 +4.6 12 +35 +35 очень
жарко
1003.4 1001.1 223
09 16.08 СЗ 4-10
{10}
н/о н/о +44.2 +4.1 9 +41 +41 опасность
перегрева
1002.2 999.9 395
12 16.08 СЗ 5-10
{12}
н/о н/о +45.2 +1.5 7 +42 +42 опасность
перегрева
1000.3 998.0 311
15 16.08 СЗ 4-7
{10}
н/о н/о +42.2 +4.8 10 +39 +39 очень
жарко
999.5 997.2 45
18 16.08 СЗ 4-8
{10}
н/о н/о +40.2 -4.0 6 +36 +36 очень
жарко
1000.9 998.6
21 16.08 З 3-7
{9}
н/о н/о +38.3 -4.1 7 +34 +34 очень
жарко
1000.5 998.2 +35.9 +45.6
00 17.08 З 2-4
{9}
н/о н/о +35.0 +4.2 15 +32 +32 жарко 1000.0 997.7
03 17.08 СЗ 3-5
{8}
н/о н/о +32.8 +7.5 21 +31 +31 жарко 1000.9 998.6 3
06 17.08 СЗ 3-6
{8}
н/о н/о +37.7 +5.4 14 +35 +35 очень
жарко
1001.6 999.3 269
09 17.08 СЗ 3-7
{10}
н/о н/о +42.5 +5.1 10 +39 +39 очень
жарко
1000.6 998.3 431
12 17.08 С 4-9
{16}
н/о н/о +43.4 +4.0 9 +40 +40 очень
жарко
998.7 996.4 326
15 17.08 СЗ 3-7
{11}
н/о н/о +39.9 +3.9 11 +37 +37 очень
жарко
998.5 996.2 42
18 17.08 СЗ 4-7
{11}
н/о н/о +38.1 +1.7 10 +35 +35 очень
жарко
999.8 997.5
21 17.08 СЗ 3-5
{7}
н/о н/о +35.9 -1.2 9 +32 +32 жарко 1000.0 997.7 +32.3 +44.0
00 18.08 ЮЗ 1-2
{7}
н/о н/о +30.7 +0.6 14 +28 +28 жарко 1000.1 997.7
03 18.08 ЮЗ 1-2
{2}
н/о н/о +29.4 +1.2 16 +27 +27 жарко 1001.2 998.8 3
06 18.08 СЗ 1-3
{4}
н/о н/о +39.3 +6.4 13 +37 +37 очень
жарко
1002.0 999.7 264
09 18.08 СЗ 1-4
{7}
н/о н/о +43.0 +6.6 11 +40 +40 очень
жарко
1001.6 999.3 414
12 18.08 СЗ 2-6
{7}
н/о н/о +43.3 +7.2 12 +41 +41 опасность
перегрева
1000.5 998.2 313
15 18.08 В 1-3
{8}
н/о н/о +39.0 +5.6 13 +36 +36 очень
жарко
1000.7 998.4 36
18 18.08 ЮВ 2-5
{8}
н/о н/о +37.6 +5.4 14 +35 +35 очень
жарко
1002.7 1000.4
21 18.08 Ю 1-4
{5}
н/о н/о +35.5 +7.4 18 +34 +34 очень
жарко
1002.9 1000.6 +28.1 +44.0
00 19.08 Ю 1-2
{5}
н/о н/о +32.6 +7.9 22 +31 +31 жарко 1002.2 999.9
03 19.08 В 1-1
{3}
н/о н/о +29.9 +9.7 28 +30 +30 жарко 1003.8 1001.4 2
06 19.08 СЗ 1-3
{4}
н/о н/о +40.5 +7.6 14 +38 +38 очень
жарко
1004.6 1002.3 253
09 19.08 С 1-4
{6}
н/о н/о +44.0 +10.1 14 +43 +43 опасность
перегрева
1004.1 1001.8 410
12 19.08 С 2-5
{7}
н/о н/о +44.3 +7.9 11 +42 +42 опасность
перегрева
1002.7 1000.4 300
15 19.08 СВ 1-3
{7}
н/о н/о +39.0 +8.1 15 +37 +37 очень
жарко
1002.9 1000.6 32
18 19.08 ЮВ 1-2
{7}
н/о н/о +37.1 +8.7 18 +35 +35 очень
жарко
1004.8 1002.5
21 19.08 штиль 0-1
{3}
н/о н/о +33.1 +8.9 23 +32 +32 жарко 1004.3 1001.9 +29.6 +44.8
00 20.08 ЮЗ 1-1
{3}
н/о н/о +31.1 +10.1 27 +31 +31 жарко 1003.7 1001.3
03 20.08 ЮЗ 1-2
{3}
н/о н/о +30.5 +9.5 27 +30 +30 жарко 1004.7 1002.3 3
06 20.08 СВ 1-2
{3}
н/о н/о +41.8 +10.3 15 +40 +40 очень
жарко
1005.6 1003.3 244
09 20.08 С 2-4
{7}
н/о н/о +44.8 +8.5 12 +43 +43 опасность
перегрева
1004.7 1002.4 397
12 20.08 С 2-4
{7}
н/о н/о +46.2 +3.7 8 +43 +43 опасность
перегрева
1003.0 1000.7 319
15 20.08 С 1-2
{4}
н/о н/о +39.7 +6.3 13 +37 +37 очень
жарко
1002.7 1000.4 31
18 20.08 ЮВ 1-3
{4}
н/о н/о +36.9 +7.8 17 +35 +35 очень
жарко
1003.8 1001.5
21 20.08 ЮЗ 2-5
{6}
н/о н/о +37.0 +7.6 17 +35 +35 очень
жарко
1003.5 1001.2 +29.9 +46.6
00 21.08 ЮЗ 1-2
{6}
н/о н/о +33.1 +3.6 16 +30 +30 жарко 1003.4 1001.1
03 21.08 СЗ 1-2
{3}
н/о н/о +30.1 +7.6 24 +29 +29 жарко 1003.6 1001.2 2
06 21.08 СЗ 2-4
{4}
н/о н/о +40.1 +8.2 15 +38 +38 очень
жарко
1004.5 1002.2 248
09 21.08 СЗ 2-4
{5}
н/о н/о +45.8 +7.2 10 +43 +43 опасность
перегрева
1003.1 1000.8 396
12 21.08 С 2-4
{6}
н/о н/о +47.1 +5.5 8 +44 +44 опасность
перегрева
1001.3 999.1 298
15 21.08 С 1-2
{5}
н/о н/о +39.6 +7.5 14 +37 +37 очень
жарко
1000.9 998.6 31
18 21.08 Ю 1-1
{5}
н/о н/о +36.3 +7.6 17 +34 +34 очень
жарко
1002.2 999.9
21 21.08 СЗ 2-5
{5}
н/о н/о +38.6 +5.3 13 +36 +36 очень
жарко
1001.7 999.4 +29.7 +47.9
00 22.08 СЗ 2-4
{8}
н/о н/о +34.7 +9.9 22 +34 +34 очень
жарко
1001.9 999.6
03 22.08 СЗ 2-5
{8}
н/о н/о +32.6 +12.5 29 +33 +33 жарко 1003.0 1000.6 3
06 22.08 СЗ 2-6
{8}
н/о н/о +38.5 +10.1 18 +37 +37 очень
жарко
1003.4 1001.1 254
09 22.08 СЗ 3-7
{8}
н/о н/о +45.1 +8.5 11 +43 +43 опасность
перегрева
1001.6 999.3 405
12 22.08 СЗ 3-8
{9}
н/о н/о +46.0 +5.2 9 +43 +43 опасность
перегрева
1000.4 998.2 311
15 22.08 СЗ 2-5
{9}
н/о н/о +42.2 +4.5 10 +39 +39 очень
жарко
1000.1 997.8 35
18 22.08 СЗ 1-3
{9}
н/о н/о +36.2 +7.1 17 +34 +34 очень
жарко
1001.6 999.3
21 22.08 СЗ 3-7
{8}
н/о н/о +36.3 +6.9 16 +34 +34 очень
жарко
1002.0 999.7 +32.5 +46.9
00 23.08 СЗ 3-6
{8}
н/о н/о +34.7 +8.7 20 +33 +33 жарко 1002.1 999.8
03 23.08 СЗ 2-5
{10}
н/о н/о +32.5 +9.6 24 +32 +32 жарко 1002.8 1000.4 2

 

Местоположение метеостанции Экспериментальная ферма (Кувейт): широта 29.29 долгота 47.94 высота над уровнем моря 21 м.

В архиве по умолчанию представлена погода на Экспериментальной ферме за последнюю неделю. Архивные данные за месяц целиком и за предыдущие месяцы, начиная с января 2011 года, Вы можете получить, выбрав интересующий диапазон дат из раскрывающегося списка и нажав кнопку "Ввод!".


*Определитесь, кто Вы:
робот инопланетянин человек

Внимание! Время в таблицах - всемирное. Для получения местного времени необходимо прибавить поправку, которая равна 3 ч.

Смотрите также архив погоды в соседних городах и на ближайших метеорологических станциях:

Погода в Эль-Кувейте (Кувейт) (8 км)
Погода в Кувейт Сити (Кувейт) (12 км)
Погода в Аль-Шуаиба (Кувейт) (17 км)
Погода в Сулайбии (Кувейт) (21 км)
Погода в Эль-Джахра (Кувейт) (26 км)
Погода Остров Файлака (Кувейт) (39 км)
Погода в Минагише (Кувейт) (47 км)
Погода на Метеостанции Jal Aliyah (Кувейт) (50 км)
Погода на Метеостанции Sabriyah (Кувейт) (52 км)
Погода в Порту Juluiah (Кувейт) (57 км)

Пояснения к столбцам:

Ветер - указаны скорость ветра в м/с - средняя за 10 мин, порывы в срок и между сроками (в фигурных скобках) и направление, откуда дует ветер: С - северный, СВ - северо-восточный, В - восточный, ЮВ - юго-восточный, Ю - южный, ЮЗ - юго-западный, З - западный, СЗ - северо-западный.
Видимость - горизонтальная дальность видимости в метрах или километрах. При видимости от 1 до 10 км при отсутствии осадков обычно наблюдается дымка, при ухудшении видимости до 1 км и менее - туман. В сухую погоду видимость может ухудшаться дымом, пылью или мглою.
Явления - указаны атмосферные явления, наблюдавшиеся в срок или в последний час перед сроком; фигурными скобками обозначены явления, наблюдавшиеся между сроками (за 1-3 часа до срока); квадратными скобками обозначены град или гололедные отложения с указанием их диаметра в мм.
Облачность - указаны через наклонную черту общая и нижняя облачность в баллах и высота нижней границы облаков в метрах; квадратными скобками обозначены формы облаков: Ci - перистые, Cs - перисто-слоистые, Cc - перисто-кучевые, Ac - высококучевые, As - высокослоистые, Sc - слоисто-кучевые, Ns - слоисто-дождевые, Cu - кучевые, Cb - кучево-дождевые. Подробнее классификацию облаков см. в Атласе облаков (PDF).
T - Температура воздуха - температура, измеренная на высоте 2 м над землей.
Td - Температура точки росы - температура, при понижении до которой содержащийся в воздухе водяной пар достигнет насыщения.
f - Относительная влажность воздуха - влажноcть воздуха, измеренная на высоте 2 м над землей.
Te - Эффективная температура - температура, которую ощущает одетый по сезону человек в тени. Характеристика душности погоды. При расчете учитывается влияние влажности воздуха и скорости ветра на теплоощущения человека.
Tes - Эффективная температура на солнце - температура, которую ощущает человек, с поправкой на солнечный нагрев. Характеристика знойности погоды. Зависит от высоты солнца над горизонтом, облачности и скорости ветра. Ночью, в пасмурную погоду, а также при ветре 12 м/с и более поправка равна нулю.
P - Атмосферное давление - приведенное к уровню моря атмосферное давление.
Po - Атмосферное давление - измеренное на уровне метеостанции атмосферное давление.
Tmin - Минимальная температура - минимум температуры воздуха на высоте 2 м над землей.
Tmax - Максимальная температура - максимум температуры воздуха на высоте 2 м над землей.
R - Количество осадков - Количество выпавших осадков за период времени, мм. При наведении курсора мыши на число - период времени, за который выпало указанное количество осадков.
R24 - Количество осадков - Количество выпавших осадков за 24 часа, мм.
S - Снежный покров - Высота снежного покрова, см. При наведении курсора мыши на число - состояние снежного покрова и степень покрытия местности в баллах.